�������l�o���
Date,Time,MP-1(��Sv/h),MP-2(��Sv/h),MP-3(��Sv/h),MP-4(��Sv/h),MP-5(��Sv/h),MP-6(��Sv/h),MP-7(��Sv/h),MP-8(��Sv/h),����,����(m/s),���J
2018/06/16,00:00,0.832,1.162,0.819,1.478,1.022,0.457,0.802,0.770,�k�k��,8.0,�L
2018/06/16,00:10,0.830,1.162,0.819,1.483,1.020,0.458,0.802,0.770,�k��,7.9,�L
2018/06/16,00:20,0.831,1.165,0.819,1.482,1.022,0.459,0.802,0.771,�k�k��,7.8,�L
2018/06/16,00:30,0.834,1.163,0.817,1.483,1.022,0.460,0.802,0.770,�k�k��,7.4,�L
2018/06/16,00:40,0.834,1.166,0.819,1.482,1.022,0.459,0.800,0.771,�k�k��,7.2,�L
2018/06/16,00:50,0.834,1.164,0.820,1.483,1.023,0.459,0.803,0.772,�k�k��,7.6,�L
2018/06/16,01:00,0.833,1.163,0.820,1.484,1.021,0.458,0.803,0.773,�k�k��,7.9,�L
2018/06/16,01:10,0.834,1.166,0.819,1.483,1.021,0.460,0.803,0.770,�k�k��,9.0,�L
2018/06/16,01:20,0.833,1.168,0.816,1.488,1.021,0.459,0.803,0.773,�k�k��,7.9,�L
2018/06/16,01:30,0.834,1.170,0.816,1.483,1.022,0.460,0.802,0.773,�k�k��,7.5,�L
2018/06/16,01:40,0.833,1.170,0.819,1.483,1.023,0.459,0.802,0.772,�k�k��,6.5,�L
2018/06/16,01:50,0.834,1.171,0.819,1.488,1.024,0.459,0.804,0.771,�k�k��,6.5,�L
2018/06/16,02:00,0.835,1.173,0.819,1.486,1.023,0.459,0.804,0.774,�k�k��,6.5,�L
2018/06/16,02:10,0.836,1.175,0.819,1.487,1.027,0.459,0.804,0.775,�k�k��,6.7,�L
2018/06/16,02:20,0.836,1.174,0.820,1.490,1.026,0.460,0.804,0.775,�k�k��,6.6,�L
2018/06/16,02:30,0.833,1.172,0.822,1.488,1.029,0.458,0.805,0.776,�k�k��,6.5,�L
2018/06/16,02:40,0.832,1.171,0.818,1.485,1.027,0.459,0.805,0.775,�k�k��,6.9,�L
2018/06/16,02:50,0.832,1.170,0.817,1.482,1.021,0.459,0.803,0.775,�k�k��,6.0,�L
2018/06/16,03:00,0.833,1.171,0.819,1.482,1.024,0.459,0.805,0.774,�k�k��,6.2,�L
2018/06/16,03:10,0.835,1.173,0.818,1.487,1.023,0.460,0.803,0.774,�k�k��,7.1,�L
2018/06/16,03:20,0.835,1.173,0.818,1.485,1.025,0.458,0.804,0.773,�k�k��,6.5,�L
2018/06/16,03:30,0.836,1.173,0.820,1.487,1.024,0.459,0.803,0.773,�k,5.9,�L
2018/06/16,03:40,0.836,1.173,0.817,1.482,1.024,0.459,0.803,0.773,�k,6.7,�L
2018/06/16,03:50,0.836,1.173,0.818,1.484,1.024,0.460,0.803,0.774,�k,6.2,�L
2018/06/16,04:00,0.837,1.177,0.818,1.489,1.023,0.458,0.805,0.775,�k,5.2,�L
2018/06/16,04:10,0.837,1.175,0.820,1.488,1.027,0.458,0.804,0.774,�k�k��,6.6,��
2018/06/16,04:20,0.837,1.175,0.821,1.486,1.027,0.458,0.805,0.775,�k�k��,7.2,��
2018/06/16,04:30,0.836,1.178,0.820,1.490,1.027,0.461,0.804,0.775,�k�k��,7.2,�L
2018/06/16,04:40,0.837,1.177,0.821,1.490,1.028,0.459,0.807,0.776,�k�k��,8.3,�L
2018/06/16,04:50,0.835,1.177,0.819,1.491,1.025,0.459,0.805,0.775,�k�k��,7.2,�L
2018/06/16,05:00,0.835,1.177,0.820,1.494,1.026,0.457,0.804,0.775,�k�k��,6.2,�L
2018/06/16,05:10,0.836,1.179,0.820,1.491,1.025,0.458,0.805,0.776,�k,5.6,�L
2018/06/16,05:20,0.838,1.177,0.820,1.492,1.027,0.459,0.804,0.775,�k,5.5,�L
2018/06/16,05:30,0.838,1.177,0.820,1.490,1.029,0.459,0.808,0.776,�k�k��,5.7,�L
2018/06/16,05:40,0.834,1.176,0.820,1.490,1.026,0.458,0.804,0.774,�k�k��,6.2,�L
2018/06/16,05:50,0.836,1.174,0.818,1.488,1.025,0.459,0.805,0.776,�k�k��,6.2,�L
2018/06/16,06:00,0.835,1.173,0.820,1.487,1.027,0.457,0.806,0.776,�k,6.1,�L
2018/06/16,06:10,0.833,1.175,0.820,1.491,1.027,0.458,0.805,0.776,�k�k��,6.6,�L
2018/06/16,06:20,0.834,1.174,0.819,1.488,1.026,0.459,0.805,0.777,�k,5.1,�L
2018/06/16,06:30,0.834,1.175,0.818,1.488,1.026,0.459,0.805,0.776,�k,6.4,�L
2018/06/16,06:40,0.836,1.176,0.818,1.491,1.027,0.458,0.804,0.774,�k,6.4,�L
2018/06/16,06:50,0.835,1.175,0.819,1.489,1.024,0.458,0.805,0.775,�k,5.8,�L
2018/06/16,07:00,0.836,1.174,0.819,1.488,1.027,0.459,0.803,0.777,�k�k��,4.4,�L
2018/06/16,07:10,0.834,1.173,0.816,1.489,1.024,0.458,0.804,0.776,�k��,5.3,�L
2018/06/16,07:20,0.831,1.170,0.817,1.488,1.024,0.456,0.805,0.776,�k��,4.7,�L
2018/06/16,07:30,0.832,1.168,0.816,1.485,1.024,0.457,0.803,0.775,�k�k��,5.2,�L
2018/06/16,07:40,0.831,1.170,0.818,1.488,1.024,0.457,0.803,0.775,�k��,4.6,�L
2018/06/16,07:50,0.832,1.171,0.817,1.485,1.023,0.457,0.802,0.776,�k�k��,5.1,�L
2018/06/16,08:00,0.832,1.170,0.817,1.485,1.024,0.458,0.804,0.775,�k��,4.9,�L
2018/06/16,08:10,0.832,1.169,0.815,1.483,1.024,0.457,0.802,0.774,�k�k��,5.3,�L
2018/06/16,08:20,0.830,1.171,0.815,1.482,1.019,0.459,0.802,0.774,�k�k��,5.1,�L
2018/06/16,08:30,0.830,1.172,0.817,1.486,1.024,0.459,0.804,0.775,�k�k��,5.8,�L
2018/06/16,08:40,0.831,1.171,0.816,1.486,1.024,0.459,0.803,0.772,�k�k��,5.6,�L
2018/06/16,08:50,0.834,1.173,0.815,1.487,1.023,0.459,0.804,0.775,�k�k��,6.9,�L
2018/06/16,09:00,0.832,1.173,0.818,1.488,1.024,0.457,0.803,0.776,�k�k��,6.2,�L
2018/06/16,09:10,0.832,1.171,0.817,1.489,1.025,0.458,0.805,0.775,�k�k��,6.0,�L
2018/06/16,09:20,0.833,1.175,0.817,1.489,1.028,0.458,0.803,0.776,�k�k��,5.8,�L
2018/06/16,09:30,0.833,1.175,0.818,1.489,1.025,0.458,0.803,0.774,�k�k��,5.4,�L
2018/06/16,09:40,0.831,1.175,0.818,1.492,1.028,0.458,0.804,0.777,�k�k��,5.2,�L
2018/06/16,09:50,0.834,1.177,0.819,1.489,1.028,0.458,0.804,0.774,�k�k��,6.0,�L
2018/06/16,10:00,0.835,1.177,0.818,1.492,1.030,0.460,0.804,0.776,�k�k��,4.9,�L
2018/06/16,10:10,0.832,1.175,0.821,1.493,1.030,0.460,0.803,0.776,�k�k��,4.8,�L
2018/06/16,10:20,0.833,1.178,0.819,1.492,1.028,0.459,0.802,0.773,�k�k��,5.5,�L
2018/06/16,10:30,0.834,1.177,0.820,1.493,1.028,0.458,0.804,0.775,�k�k��,6.3,�L
2018/06/16,10:40,0.833,1.176,0.818,1.491,1.029,0.460,0.805,0.776,�k�k��,4.5,�L
2018/06/16,10:50,0.832,1.176,0.819,1.492,1.030,0.459,0.804,0.775,�k�k��,5.0,�L
2018/06/16,11:00,0.835,1.178,0.821,1.493,1.030,0.460,0.802,0.776,�k�k��,4.9,�L
2018/06/16,11:10,0.834,1.175,0.822,1.492,1.029,0.460,0.801,0.775,�k�k��,6.3,�L
2018/06/16,11:20,0.836,1.175,0.819,1.493,1.029,0.459,0.803,0.776,�k�k��,5.4,�L
2018/06/16,11:30,0.832,1.178,0.820,1.491,1.029,0.458,0.802,0.774,�k�k��,5.2,�L
2018/06/16,11:40,0.834,1.174,0.820,1.492,1.029,0.460,0.802,0.773,�k�k��,5.1,�L
2018/06/16,11:50,0.834,1.176,0.819,1.493,1.030,0.460,0.804,0.773,�k�k��,4.9,�L
2018/06/16,12:00,0.833,1.177,0.820,1.491,1.031,0.458,0.804,0.774,�k�k��,6.1,�L
2018/06/16,12:10,0.833,1.175,0.820,1.489,1.028,0.460,0.804,0.774,�k�k��,6.1,�L
2018/06/16,12:20,0.833,1.177,0.818,1.491,1.030,0.459,0.803,0.773,�k�k��,6.3,�L
2018/06/16,12:30,0.833,1.176,0.821,1.490,1.028,0.459,0.804,0.775,�k�k��,6.8,�L
2018/06/16,12:40,0.834,1.177,0.819,1.493,1.029,0.459,0.804,0.773,�k,4.9,�L
2018/06/16,12:50,0.836,1.177,0.819,1.494,1.028,0.459,0.804,0.774,�k,4.4,�L
2018/06/16,13:00,0.834,1.179,0.819,1.495,1.031,0.460,0.803,0.775,�k,4.5,��
2018/06/16,13:10,0.836,1.180,0.819,1.495,1.032,0.460,0.804,0.775,�k,4.8,�L
2018/06/16,13:20,0.837,1.179,0.821,1.499,1.032,0.460,0.804,0.776,�k�k��,7.3,�L
2018/06/16,13:30,0.839,1.179,0.822,1.497,1.031,0.460,0.806,0.776,�k�k��,6.3,�L
2018/06/16,13:40,0.834,1.179,0.821,1.497,1.031,0.461,0.804,0.776,�k�k��,6.6,�L
2018/06/16,13:50,0.837,1.180,0.821,1.495,1.032,0.461,0.805,0.776,�k�k��,5.7,�L
2018/06/16,14:00,0.837,1.179,0.820,1.498,1.029,0.459,0.805,0.774,�k�k��,6.0,�L
2018/06/16,14:10,0.840,1.179,0.820,1.498,1.027,0.460,0.806,0.773,�k�k��,6.6,�L
2018/06/16,14:20,0.838,1.177,0.819,1.495,1.026,0.460,0.808,0.776,�k�k��,7.5,�L
2018/06/16,14:30,0.837,1.176,0.822,1.494,1.023,0.459,0.806,0.774,�k�k��,6.6,�L
2018/06/16,14:40,0.838,1.171,0.819,1.493,1.022,0.458,0.805,0.775,�k�k��,6.6,�L
2018/06/16,14:50,0.837,1.174,0.816,1.495,1.023,0.457,0.805,0.774,�k�k��,6.6,�L
2018/06/16,15:00,0.837,1.174,0.819,1.494,1.023,0.458,0.805,0.775,�k�k��,6.5,�L
2018/06/16,15:10,0.834,1.174,0.819,1.494,1.019,0.458,0.804,0.775,�k,6.9,�L
2018/06/16,15:20,0.836,1.173,0.819,1.494,1.022,0.457,0.804,0.774,�k,5.7,�L
2018/06/16,15:30,0.837,1.174,0.817,1.494,1.021,0.458,0.804,0.774,�k�k��,5.4,�L
2018/06/16,15:40,0.837,1.174,0.818,1.490,1.020,0.457,0.804,0.776,�k�k��,5.4,�L
2018/06/16,15:50,0.836,1.174,0.819,1.493,1.020,0.457,0.804,0.775,�k�k��,6.4,�L
2018/06/16,16:00,0.838,1.175,0.816,1.491,1.019,0.458,0.804,0.775,�k�k��,6.7,�L
2018/06/16,16:10,0.838,1.177,0.818,1.490,1.019,0.458,0.802,0.776,�k��,5.9,�L
2018/06/16,16:20,0.838,1.177,0.819,1.492,1.019,0.457,0.805,0.777,�k�k��,4.9,�L
2018/06/16,16:30,0.838,1.177,0.821,1.491,1.021,0.460,0.804,0.776,�k�k��,3.8,�L
2018/06/16,16:40,0.837,1.178,0.820,1.496,1.023,0.458,0.804,0.777,�k�k��,3.8,�L
2018/06/16,16:50,0.838,1.175,0.818,1.491,1.021,0.458,0.805,0.775,�k�k��,3.2,�L
2018/06/16,17:00,0.839,1.177,0.818,1.493,1.023,0.458,0.805,0.776,�k�k��,3.0,�L
2018/06/16,17:10,0.838,1.178,0.820,1.494,1.020,0.461,0.805,0.777,�k��,3.0,�L
2018/06/16,17:20,0.838,1.177,0.821,1.492,1.019,0.458,0.807,0.776,�k�k��,3.9,�L
2018/06/16,17:30,0.837,1.179,0.818,1.493,1.018,0.458,0.805,0.776,�k��,3.2,�L
2018/06/16,17:40,0.837,1.175,0.818,1.488,1.016,0.456,0.806,0.776,�k�k��,3.5,�L
2018/06/16,17:50,0.837,1.175,0.818,1.486,1.015,0.455,0.804,0.775,�k�k��,3.3,�L
2018/06/16,18:00,0.837,1.172,0.818,1.488,1.012,0.457,0.802,0.775,�k�k��,3.9,�L
2018/06/16,18:10,0.835,1.177,0.818,1.486,1.014,0.457,0.805,0.776,�k�k��,2.9,�L
2018/06/16,18:20,0.838,1.175,0.817,1.485,1.014,0.457,0.803,0.775,�k�k��,2.0,�L
2018/06/16,18:30,0.836,1.176,0.817,1.488,1.015,0.457,0.802,0.774,�k�k��,2.6,��
2018/06/16,18:40,0.836,1.177,0.820,1.489,1.015,0.458,0.805,0.775,�k�k��,3.0,�L
2018/06/16,18:50,0.837,1.175,0.819,1.489,1.020,0.457,0.804,0.773,�k��,3.4,�L
2018/06/16,19:00,0.839,1.175,0.817,1.491,1.019,0.458,0.806,0.773,�k��,4.2,�L
2018/06/16,19:10,0.837,1.175,0.819,1.490,1.019,0.457,0.804,0.775,�k��,3.7,�L
2018/06/16,19:20,0.837,1.180,0.820,1.490,1.019,0.458,0.804,0.776,�k�k��,3.7,�L
2018/06/16,19:30,0.838,1.174,0.817,1.492,1.020,0.457,0.803,0.777,�k�k��,3.7,�L
2018/06/16,19:40,0.838,1.177,0.817,1.490,1.018,0.457,0.805,0.777,�k�k��,3.9,�L
2018/06/16,19:50,0.836,1.173,0.817,1.489,1.017,0.458,0.805,0.775,�k�k��,4.2,�L
2018/06/16,20:00,0.837,1.173,0.816,1.488,1.021,0.457,0.804,0.774,�k�k��,3.4,�L
2018/06/16,20:10,0.836,1.174,0.815,1.487,1.018,0.460,0.805,0.774,�k��,4.1,�L
2018/06/16,20:20,0.836,1.172,0.819,1.488,1.020,0.458,0.803,0.774,�k��,3.7,�L
2018/06/16,20:30,0.835,1.171,0.818,1.489,1.020,0.459,0.805,0.775,�k��,4.2,�L
2018/06/16,20:40,0.835,1.172,0.817,1.491,1.022,0.459,0.804,0.776,�k��,3.8,�L
2018/06/16,20:50,0.835,1.173,0.816,1.488,1.019,0.460,0.803,0.774,�k�k��,3.0,�L
2018/06/16,21:00,0.837,1.175,0.817,1.490,1.020,0.461,0.803,0.774,�k��,3.4,�L
2018/06/16,21:10,0.834,1.175,0.816,1.491,1.021,0.459,0.805,0.774,�k��,4.4,�L
2018/06/16,21:20,0.833,1.171,0.819,1.491,1.022,0.460,0.804,0.772,�k��,5.1,�L
2018/06/16,21:30,0.835,1.175,0.817,1.488,1.020,0.458,0.805,0.774,�k��,5.2,�L
2018/06/16,21:40,0.836,1.174,0.819,1.488,1.021,0.460,0.804,0.773,�k��,4.9,�L
2018/06/16,21:50,0.835,1.175,0.818,1.489,1.024,0.459,0.806,0.775,�k��,4.9,�L
2018/06/16,22:00,0.834,1.173,0.819,1.488,1.023,0.459,0.804,0.773,�k��,5.0,�L
2018/06/16,22:10,0.836,1.175,0.820,1.493,1.022,0.461,0.806,0.775,�k��,4.8,�L
2018/06/16,22:20,0.835,1.177,0.818,1.491,1.024,0.460,0.804,0.775,�k��,3.8,�L
2018/06/16,22:30,0.834,1.175,0.818,1.492,1.024,0.462,0.806,0.774,�k��,4.0,�L
2018/06/16,22:40,0.837,1.176,0.820,1.491,1.025,0.460,0.805,0.775,�k��,5.3,��
2018/06/16,22:50,0.836,1.176,0.820,1.493,1.026,0.460,0.806,0.776,�k��,4.2,�L
2018/06/16,23:00,0.837,1.174,0.819,1.494,1.024,0.462,0.805,0.775,�k��,3.7,�L
2018/06/16,23:10,0.836,1.177,0.819,1.490,1.025,0.461,0.806,0.776,�k��,4.1,��
2018/06/16,23:20,0.836,1.177,0.818,1.495,1.027,0.459,0.805,0.778,���k��,3.7,��
2018/06/16,23:30,0.836,1.177,0.820,1.493,1.024,0.460,0.806,0.775,���k��,3.9,��
2018/06/16,23:40,0.835,1.177,0.821,1.492,1.025,0.462,0.806,0.775,���k��,3.7,�L
2018/06/16,23:50,0.836,1.180,0.820,1.497,1.027,0.460,0.806,0.775,���k��,2.6,�L
